Observations for Trim Patrick St
| Time | AQI | Temp °C | Hum % | Pres Pa | CO μg/m³ | H₂S μg/m³ | NO μg/m³ | NO₂ μg/m³ | O₃ μg/m³ | SO₂ μg/m³ | PM1 μg/m³ | PM2.5 μg/m³ | PM10 μg/m³ |
|---|---|---|---|---|---|---|---|---|---|---|---|---|---|
| Monday 3 August 2026 | |||||||||||||
| 21:48 | 4 | 17.8 | 76 | 38,460 | 0 | 15.99 | 0.46 | 43.73 | 26.56 | 0.92 | 2.86 | 6.22 | 6.85 |
| 21:47 | 3 | 17.8 | 75 | 38,460 | 0 | 15.81 | 0.5 | 57.92 | 66.68 | 0.75 | 2.86 | 6.99 | 7.69 |
| 21:46 | 4 | 17.9 | 76 | 38,460 | 0 | 14.03 | 0.5 | 39.41 | 24.97 | 1.02 | 2.86 | 6.21 | 6.83 |
| 21:45 | 4 | 17.9 | 75 | 38,460 | 0 | 16.25 | 0.64 | 47.58 | 47.51 | 1.06 | 3.71 | 6.95 | 7.64 |
| 21:44 | 4 | 17.9 | 75 | 38,460 | 0 | 16.78 | 0.63 | 49.64 | 27.49 | 0.9 | 2.86 | 6.28 | 6.91 |
| 21:43 | 4 | 17.9 | 75 | 38,460 | 0 | 17.27 | 0.58 | 57.58 | 39.12 | 1.31 | 2.86 | 6.24 | 6.87 |
| 21:41 | 4 | 18 | 75 | 38,460 | 0 | 15.23 | 0.77 | 62.66 | 9.24 | 0.95 | 2.86 | 7 | 7.7 |
| 21:40 | 4 | 18 | 74 | 38,460 | 0 | 14.37 | 0.72 | 50.29 | 20.89 | 1.21 | 2.86 | 6.3 | 6.93 |
| 21:39 | 4 | 18 | 74 | 38,460 | 0 | 10.59 | 0.83 | 42.04 | 20.08 | 0.75 | 2.86 | 7.03 | 7.73 |
| 21:37 | 4 | 18.1 | 73 | 38,460 | 0 | 14.58 | 0.82 | 43.27 | 34.27 | 0.75 | 3.71 | 7.82 | 8.6 |
| 21:36 | 4 | 18.1 | 73 | 38,460 | 0 | 16.18 | 0.86 | 44.67 | 37.02 | 1.47 | 3.71 | 7.13 | 7.85 |
| 21:35 | 4 | 18.2 | 72 | 38,460 | 0 | 16.12 | 0.74 | 46.76 | 46.27 | 1.5 | 3.71 | 7.15 | 7.86 |
| 21:34 | 4 | 18.2 | 72 | 38,460 | 0 | 15.31 | 0.85 | 52.48 | 29.66 | 1.07 | 2.86 | 6.48 | 7.13 |
| 21:33 | 4 | 18.3 | 72 | 38,460 | 0 | 14.47 | 0.84 | 44.56 | 19.24 | 1.36 | 2.86 | 5.74 | 6.32 |
| 21:32 | 4 | 18.3 | 66 | 38,460 | 0 | 15.29 | 0.89 | 45.18 | 36.71 | 0.15 | 2 | 6.12 | 6.73 |
| 21:31 | 4 | 18.3 | 68 | 38,460 | 0 | 16.89 | 0.86 | 51.3 | 62.77 | 1.84 | 2.86 | 6.74 | 7.42 |
| 21:30 | 4 | 18.4 | 71 | 38,460 | 0 | 15.76 | 0.89 | 37.71 | 40.49 | 1.58 | 2.86 | 6.5 | 7.15 |
| 21:29 | 4 | 18.4 | 71 | 38,460 | 0 | 16.42 | 0.82 | 49.52 | 41.4 | 1.83 | 2.86 | 6.55 | 7.21 |
| 21:28 | 4 | 18.4 | 68 | 38,460 | 0 | 15 | 0.91 | 50.91 | 35.13 | 0.57 | 2.86 | 7.46 | 8.21 |
| 21:27 | 4 | 18.5 | 66 | 38,460 | 0 | 14.89 | 0.93 | 40.47 | 28.43 | 1.06 | 2.86 | 7.57 | 8.33 |